Regional Weather Roundup
Issued by NWS

Home | Current Version | Previous Version | Graphics & Text | Print | Product List | Glossary On
Versions: 1 2 3 4 5 6 7 8 9 10 11 12 13 14 15 16 17 18 19 20 21 22 23 24 25 26 27 28 29 30 31 32 33 34 35 36 37 38 39 40 41 42 43 44 45 46 47 48 49 50
000
ASUS45 KSLC 260910
RWRUT

UTAH REGIONAL WEATHER ROUNDUP
NATIONAL WEATHER SERVICE SALT LAKE CITY UT
300 AM MDT SAT JUL 26 2014

UTZ001>011-023>025-261000-

NORTHERN UTAH

CITY           SKY/WX    TMP DP  RH WIND       PRES   REMARKS
HILL AFB       PTCLDY    73  36  25 E13       30.07R
LOGAN          CLEAR     63  42  46 CALM      30.10R
OGDEN          CLEAR     69  42  37 CALM      30.04S
PROVO AIRPORT  PTCLDY    70  50  49 SE3       30.08S
SALT LAKE CITY CLEAR     73  45  36 NW6       30.03R
VERNAL         MOCLDY    71  48  43 W7        30.11S
WENDOVER       CLEAR     73  28  19 W9        30.07S
HEBER CITY     PTCLDY    59  48  67 CALM      30.15S
WEST JORDAN    CLEAR     73  52  46 W5        30.07R

$$

UTZ012>022-026-027-261000-

SOUTHERN UTAH

CITY           SKY/WX    TMP DP  RH WIND       PRES   REMARKS
BRYCE CANYON   PTCLDY    53  44  71 N3        30.36S
CEDAR CITY     CLOUDY    73  48  41 SW8       30.18S
MILFORD        PTCLDY    74  49  41 S12       30.11R
MOAB/CYNLANDS  CLEAR     78  47  33 SW5       30.05S
PRICE          MOCLDY    68  46  45 N6        30.18F
ST GEORGE      MOSUNNY   84  52  32 SE9       30.00S
KANAB            N/A     66  52  59 CALM      30.20S

$$

REGIONAL REPORTS     COLORADO/ARIZONA

CITY           SKY/WX    TMP DP  RH WIND       PRES   REMARKS
CRAIG, CO      MOCLDY    58  50  75 CALM      30.21F
GRAND JUNCTION PTCLDY    71  52  50 E6        30.10R
RIFLE          PTCLDY    65  48  54 E5        30.19S
MONTROSE       PTCLDY    68  52  56 SE7       30.21F
CORTEZ         CLEAR     61  45  55 E3        30.20F
PAGE, AZ       CLOUDY    81  52  36 CALM      30.10S
GRAND CANYON   CLOUDY    66  48  52 SE5       30.31F
KINGMAN        CLOUDY    74  64  71 S6        30.04F
FLAGSTAFF      MOCLDY    63  47  55 VRB3      30.35F

$$

REGIONAL REPORTS    NEVADA/IDAHO/WYOMING

CITY           SKY/WX    TMP DP  RH WIND       PRES   REMARKS
LAS VEGAS, NV  CLOUDY    89  59  36 S22G29    29.87S
ELY            CLEAR     65  37  35 SW12      30.20R
ELKO           CLEAR     62  27  26 N3        30.15R
POCATELLO, ID  CLEAR     66  29  24 SW15      30.11R
BURLEY         CLEAR     54  38  54 SW3       30.10R
EVANSTON, WY   PTCLDY    62  32  32 N8        30.27S
ROCK SPRINGS   PTCLDY    61  23  23 S7        30.23R

$$


USA.gov is the U.S. government's official web portal to all federal, state and local government web resources and services.